Regional Weather Roundup
Issued by NWS Sterling, VA

Home | Current Version | Previous Version | Graphics & Text | Print | Product List | Glossary On
Versions: 1 2 3 4 5 6 7 8 9 10 11 12 13 14 15 16 17 18 19 20 21 22 23 24 25 26 27 28 29 30 31 32 33 34 35 36 37 38 39 40 41 42 43 44 45 46 47 48 49 50
000
ASUS41 KLWX 282210
RWRLWX

REGIONAL WEATHER ROUNDUP
NATIONAL WEATHER SERVICE BALTIMORE MD/WASHINGTON DC
500 PM EST WED JAN 28 2015

Note: "FAIR" indicates few or no clouds below 12,000 feet
with no significant weather and/or obstructions to visibility.
 TC=TEMPERATURE CELSIUS

 * =Non NWS site. Station does not report precipitation (e.g. rain,
    snow, etc.), thunder, or fog.

DCZ001-MDZ009-015-VAZ040>042-051-053>054-282300-
WASHINGTON METRO

CITY           SKY/WX    TMP DP  RH WIND       PRES   REMARKS
WASHINGTON NAT PTCLDY    37   6  27 NW14G21   30.27R WCI  28
DULLES         CLEAR     33   7  33 NW14      30.26R WCI  23
ANDREWS AFB    CLEAR     33   6  32 NW15      30.24R WCI  23
FT BELVOIR     CLEAR     36   7  30 NW10G17   30.27R WCI  28
QUANTICO       CLEAR     36   5  27 N9G24     30.28R WCI  29
COLLEGE PARK*  CLEAR     34   7  32 NW6       30.25R
LEESBURG*      CLEAR     34  12  40 N8        30.27R WCI  27
MANASSAS*      CLEAR     36   7  30 N8        30.27
GAITHERSBURG*  CLEAR     30   7  37 W10       30.28R WCI  21

$$

MDZ006>007-011-014-282300-
BALTIMORE METRO

CITY           SKY/WX    TMP DP  RH WIND       PRES   REMARKS
BWI AIRPORT    PTCLDY    33   6  32 W10       30.24R WCI  25
MD SCIENCE CTR   N/A     34   3  27 MISG      30.24R
MARTIN STATE   CLEAR     36   7  30 NW8G20    30.24R
ANNAPOLIS      CLEAR     34   6  31 W9G18     30.24R WCI  27
FORT MEADE*    CLEAR     32   7  34 NW7G16    30.26R

$$

MDZ012-015-019>023-282300-
MARYLAND EASTERN SHORE

CITY           SKY/WX    TMP DP  RH WIND       PRES   REMARKS
OCEAN CITY     CLEAR     34   7  32 N12G22    30.18R WCI  25
SALISBURY      CLEAR     36   9  32 NW13      30.19R WCI  27
BAY BRIDGE AP*   N/A     34  10  37 NW12      30.24R WCI  25
CAMBRIDGE*     CLEAR     36  10  35 NW9G17    30.22R WCI  29
EASTON*        CLEAR     36  12  38 NW12G18   30.25R WCI  27

$$

MDZ017>025-282300-
SOUTHERN MARYLAND

CITY           SKY/WX    TMP DP  RH WIND       PRES   REMARKS
PATUXENT RIVER CLEAR     34   9  35 NW16      30.22R WCI  24
ST INIGOES     CLEAR     36   6  28 NW10G20   30.22R WCI  28
LEONARDTOWN*   CLEAR     34   5  29 NW10      30.24R WCI  26

$$

MDZ003>005-282300-
NORTH CENTRAL MARYLAND

CITY           SKY/WX    TMP DP  RH WIND       PRES   REMARKS
FREDERICK*     CLEAR     34   3  27 NW6       30.29R
HAGERSTOWN APT CLEAR     31   4  31 NW6       30.25R
WESTMINSTER*   CLEAR     30   1  29 NW9       30.21R WCI  22

$$

MDZ501>502-282300-
WESTERN MARYLAND

CITY           SKY/WX    TMP DP  RH WIND       PRES   REMARKS
OAKLAND*       CLEAR     18  10  73 CALM      30.17R
CUMBERLAND*    CLEAR     32   3  29 N3        30.32R

$$

VAZ025>031-282300-
SHENANDOAH VALLEY

CITY           SKY/WX    TMP DP  RH WIND       PRES   REMARKS
WINCHESTER*    CLEAR     32   1  27 NW9       30.26R WCI  24
FRONT ROYAL*   FAIR      34   5  29 N5        30.25S
LURAY*         FAIR      37   9  30 NW7       30.24S
NEW MARKET*    FAIR      34   4  28 N6        30.25R
STAUNTON*      CLEAR     35   5  29 NE6       30.25S
WAYNESBORO*    FAIR      34   8  33 N7        30.22R

$$

WVZ021-048>050-054>055-282300-
EASTERN WEST VIRGINIA PANHANDLE

CITY           SKY/WX    TMP DP  RH WIND       PRES   REMARKS
MARTINSBURG    CLEAR     34   4  28 NW8       30.26R WCI  27
PETERSBURG*    CLEAR     33   0  24 N3        30.28R

$$

VAZ036>039-050-282300-
CENTRAL FOOTHILLS

CITY           SKY/WX    TMP DP  RH WIND       PRES   REMARKS
CHARLOTTESVILL CLEAR     38  -3  17 NW12      30.24R
CULPEPER*      CLEAR     37   3  23 N8        30.26R
ORANGE*        CLEAR     39   3  22 NW6       30.26R
GORDONSVILLE*  FAIR      39  -2  17 CALM      30.23S
WARRENTON*     FAIR      37  13  38 N10       30.25R

$$

VAZ055>057-282300-
NORTH AND CENTRAL PIEDMONT

CITY           SKY/WX    TMP DP  RH WIND       PRES   REMARKS
FREDERICKSBRG* CLEAR     38   7  26 N6        30.26R
STAFFORD*      CLEAR     35   4  26 NW10      30.31R WCI  28

$$

NCZ024-NYZ072-PAZ021-071-VAZ022-071-282300-
OTHER REGIONAL OBSERVATIONS

CITY           SKY/WX    TMP DP  RH WIND       PRES   REMARKS
NEW YORK CITY  CLEAR     33   6  32 VRB6      30.14R
PHILADELPHIA   CLEAR     34   1  24 NW9       30.20R WCI  27
PITTSBURGH     MOCLDY    23  11  60 S5        30.30S
ROANOKE        CLEAR     42   9  25 NW5       30.24R
RICHMOND       PTCLDY    41   2  19 N17       30.24R
RALEIGH        PTCLDY    44   8  23 N3        30.25R

$$

ANZ530>537-282300-
MARINE OBSERVATIONS

STATION/POSITION TIME  TEMP    WIND        PRES
                       AIR SEA DIR/SP/G
                 (UTC) (F)     (DEG/KT/KT) (MB)
THOMAS PT LIGHT  2200   34 36  310/ 13/ 16 1024.8R
BALT KEY BRIDGE  2200   35     300/ 14/ 15 1023.5R
COVE POINT       2200   34     330/ 13/ 18 1023.1R
LEWISETTA        2200   36 37  330/  8/ 14 1023.5R
SOLOMONS ISLAND  2200      37                N/A
PINEY POINT      2200          340/ 19/ 21   N/A

$$




USA.gov is the U.S. government's official web portal to all federal, state and local government web resources and services.